Time,TemperatureF,DewpointF,PressureIn,WindDirection,WindDirectionDegrees,WindSpeedMPH,WindSpeedGustMPH,Humidity,HourlyPrecipIn,Conditions,Clouds,dailyrainin,SoftwareType,DateUTC
2013-06-28 00:01:00,70.9,47.3,28.76,SSE,166,3.6,3.6,43,0.00,,CLR,0.00,VWS V14.00,2013-06-28 05:01:00,
2013-06-28 00:06:00,70.9,47.3,28.76,West,278,0.0,3.6,43,0.00,,CLR,0.00,VWS V14.00,2013-06-28 05:06:00,
2013-06-28 00:11:00,71.1,47.5,28.76,SSW,197,0.0,0.0,43,0.00,,CLR,0.00,VWS V14.00,2013-06-28 05:11:00,
2013-06-28 00:16:00,70.9,47.3,28.76,SSE,151,0.0,0.0,43,0.00,,CLR,0.00,VWS V14.00,2013-06-28 05:16:00,
2013-06-28 00:21:00,70.9,47.3,28.76,SW,216,0.0,2.7,43,0.00,,CLR,0.00,VWS V14.00,2013-06-28 05:21:00,
2013-06-28 00:26:00,70.9,47.3,28.76,SW,232,3.1,4.0,43,0.00,,CLR,0.00,VWS V14.00,2013-06-28 05:26:00,
2013-06-28 00:31:00,71.1,47.5,28.76,SW,217,0.0,0.0,43,0.00,,CLR,0.00,VWS V14.00,2013-06-28 05:31:00,
2013-06-28 00:36:00,71.4,47.2,28.76,SSW,194,5.4,8.3,42,0.00,,CLR,0.00,VWS V14.00,2013-06-28 05:36:00,
2013-06-28 00:41:00,71.6,45.4,28.76,WSW,237,0.0,0.0,39,0.00,,CLR,0.00,VWS V14.00,2013-06-28 05:41:00,
2013-06-28 00:46:00,71.6,45.4,28.76,SW,227,3.1,5.4,39,0.00,,CLR,0.00,VWS V14.00,2013-06-28 05:46:00,
2013-06-28 00:51:00,71.8,44.8,28.76,WSW,254,0.0,2.7,38,0.00,,CLR,0.00,VWS V14.00,2013-06-28 05:51:00,
2013-06-28 00:56:00,71.8,44.8,28.76,WSW,237,3.6,6.3,38,0.00,,CLR,0.00,VWS V14.00,2013-06-28 05:56:00,
2013-06-28 01:01:00,71.8,44.1,28.76,SSE,163,3.1,4.0,37,0.00,,CLR,0.00,VWS V14.00,2013-06-28 06:01:00,
2013-06-28 01:06:00,71.8,44.1,28.76,ESE,118,0.0,5.4,37,0.00,,CLR,0.00,VWS V14.00,2013-06-28 06:06:00,
2013-06-28 01:11:00,72.1,43.7,28.76,South,172,5.4,5.4,36,0.00,,CLR,0.00,VWS V14.00,2013-06-28 06:11:00,
2013-06-28 01:16:00,72.5,43.3,28.76,SSW,205,2.7,6.3,35,0.00,,CLR,0.00,VWS V14.00,2013-06-28 06:16:00,
2013-06-28 01:21:00,72.5,43.3,28.76,SW,234,3.6,3.6,35,0.00,,CLR,0.00,VWS V14.00,2013-06-28 06:21:00,
2013-06-28 01:26:00,72.7,43.5,28.76,SSW,196,3.6,7.6,35,0.00,,CLR,0.00,VWS V14.00,2013-06-28 06:26:00,
2013-06-28 01:31:00,72.7,42.7,28.76,South,190,2.7,3.1,34,0.00,,CLR,0.00,VWS V14.00,2013-06-28 06:31:00,
2013-06-28 01:36:00,73.2,43.2,28.76,SW,214,6.3,6.3,34,0.00,,CLR,0.00,VWS V14.00,2013-06-28 06:36:00,
2013-06-28 01:41:00,73.4,42.6,28.73,South,180,4.0,4.0,33,0.00,,CLR,0.00,VWS V14.00,2013-06-28 06:41:00,
2013-06-28 01:46:00,73.2,42.4,28.73,NNE,32,2.2,4.9,33,0.00,,CLR,0.00,VWS V14.00,2013-06-28 06:46:00,
2013-06-28 01:51:00,72.9,42.9,28.73,South,182,0.0,6.3,34,0.00,,CLR,0.00,VWS V14.00,2013-06-28 06:51:00,
2013-06-28 01:56:00,73.0,43.0,28.73,SW,229,2.7,6.3,34,0.00,,CLR,0.00,VWS V14.00,2013-06-28 06:56:00,
2013-06-28 02:01:00,73.0,42.3,28.73,SW,225,5.4,5.4,33,0.00,,CLR,0.00,VWS V14.00,2013-06-28 07:01:00,
2013-06-28 02:06:00,73.4,41.8,28.73,SSW,211,3.1,9.6,32,0.00,,CLR,0.00,VWS V14.00,2013-06-28 07:06:00,
2013-06-28 02:11:00,74.1,42.4,28.76,SW,233,2.7,7.6,32,0.00,,CLR,0.00,VWS V14.00,2013-06-28 07:11:00,
2013-06-28 02:16:00,73.8,42.1,28.76,SW,224,3.6,8.1,32,0.00,,CLR,0.00,VWS V14.00,2013-06-28 07:16:00,
2013-06-28 02:21:00,73.4,41.8,28.76,SW,214,3.6,3.6,32,0.00,,CLR,0.00,VWS V14.00,2013-06-28 07:21:00,
2013-06-28 02:26:00,73.2,42.4,28.76,WSW,245,0.0,6.3,33,0.00,,CLR,0.00,VWS V14.00,2013-06-28 07:26:00,
2013-06-28 02:31:00,73.2,42.4,28.76,WSW,243,3.6,3.6,33,0.00,,CLR,0.00,VWS V14.00,2013-06-28 07:31:00,
2013-06-28 02:36:00,73.2,42.4,28.76,WNW,286,2.7,4.0,33,0.00,,CLR,0.00,VWS V14.00,2013-06-28 07:36:00,
2013-06-28 02:41:00,73.0,42.3,28.73,SW,230,0.0,3.1,33,0.00,,CLR,0.00,VWS V14.00,2013-06-28 07:41:00,
2013-06-28 02:46:00,72.7,42.0,28.73,South,182,3.6,3.6,33,0.00,,CLR,0.00,VWS V14.00,2013-06-28 07:46:00,
2013-06-28 02:51:00,72.5,42.6,28.73,ESE,121,0.0,2.2,34,0.00,,CLR,0.00,VWS V14.00,2013-06-28 07:51:00,
2013-06-28 02:56:00,72.0,42.1,28.73,ESE,112,2.7,3.1,34,0.00,,CLR,0.00,VWS V14.00,2013-06-28 07:56:00,
2013-06-28 03:01:00,71.8,42.7,28.73,NE,56,0.0,3.1,35,0.00,,FEW140,0.00,VWS V14.00,2013-06-28 08:01:00,
2013-06-28 03:06:00,71.8,43.4,28.73,SSE,149,2.7,5.4,36,0.00,,FEW140,0.00,VWS V14.00,2013-06-28 08:06:00,
2013-06-28 03:11:00,72.0,42.8,28.73,SW,225,3.1,7.6,35,0.00,,FEW140,0.00,VWS V14.00,2013-06-28 08:11:00,
2013-06-28 03:16:00,72.0,42.8,28.73,SSE,159,2.7,7.6,35,0.00,,FEW140,0.00,VWS V14.00,2013-06-28 08:16:00,
2013-06-28 03:21:00,72.3,43.2,28.73,WSW,245,0.0,4.9,35,0.00,,FEW140,0.00,VWS V14.00,2013-06-28 08:21:00,
2013-06-28 03:26:00,72.7,43.5,28.73,SSE,166,7.6,7.6,35,0.00,,FEW140,0.00,VWS V14.00,2013-06-28 08:26:00,
2013-06-28 03:31:00,73.0,43.0,28.73,SSW,208,0.0,2.2,34,0.00,,FEW140,0.00,VWS V14.00,2013-06-28 08:31:00,
2013-06-28 03:36:00,73.2,43.2,28.73,WSW,242,8.1,8.7,34,0.00,,FEW140,0.00,VWS V14.00,2013-06-28 08:36:00,
2013-06-28 03:41:00,73.0,43.0,28.73,SW,230,3.1,11.0,34,0.00,,FEW140,0.00,VWS V14.00,2013-06-28 08:41:00,
2013-06-28 03:46:00,72.7,43.5,28.73,WSW,257,2.2,11.0,35,0.00,,FEW140,0.00,VWS V14.00,2013-06-28 08:46:00,
2013-06-28 03:51:00,72.3,43.9,28.73,West,271,4.9,6.7,36,0.00,,FEW140,0.00,VWS V14.00,2013-06-28 08:51:00,
2013-06-28 03:56:00,71.8,44.1,28.73,SSW,211,3.6,11.0,37,0.00,,FEW140,0.00,VWS V14.00,2013-06-28 08:56:00,
2013-06-28 04:01:00,71.6,44.0,28.73,West,268,0.0,11.0,37,0.00,,BKN080,0.00,VWS V14.00,2013-06-28 09:01:00,
2013-06-28 04:06:00,71.2,45.0,28.73,West,278,0.0,11.0,39,0.00,,BKN080,0.00,VWS V14.00,2013-06-28 09:06:00,
2013-06-28 04:11:00,70.9,46.0,28.73,SSE,151,3.6,4.5,41,0.00,,BKN080,0.00,VWS V14.00,2013-06-28 09:11:00,
2013-06-28 04:16:00,70.9,46.0,28.73,SSE,147,3.1,8.3,41,0.00,,BKN080,0.00,VWS V14.00,2013-06-28 09:16:00,
2013-06-28 04:21:00,70.5,46.3,28.73,South,179,3.1,4.0,42,0.00,,BKN080,0.00,VWS V14.00,2013-06-28 09:21:00,
2013-06-28 04:26:00,70.2,46.6,28.73,SSW,205,0.0,5.4,43,0.00,,BKN080,0.00,VWS V14.00,2013-06-28 09:26:00,
2013-06-28 04:31:00,70.0,47.1,28.73,SW,222,2.2,2.2,44,0.00,,BKN080,0.00,VWS V14.00,2013-06-28 09:31:00,
2013-06-28 04:36:00,70.0,47.1,28.73,South,177,2.2,8.7,44,0.00,,BKN080,0.00,VWS V14.00,2013-06-28 09:36:00,
2013-06-28 04:41:00,70.0,47.1,28.73,SSW,208,2.7,3.6,44,0.00,,BKN080,0.00,VWS V14.00,2013-06-28 09:41:00,
2013-06-28 04:46:00,70.2,47.2,28.73,WSW,244,6.3,8.1,44,0.00,,BKN080,0.00,VWS V14.00,2013-06-28 09:46:00,
2013-06-28 04:51:00,70.2,47.2,28.73,SW,222,5.4,8.3,44,0.00,,BKN080,0.00,VWS V14.00,2013-06-28 09:51:00,
2013-06-28 04:56:00,70.0,47.1,28.73,SSW,208,5.4,8.3,44,0.00,,BKN080,0.00,VWS V14.00,2013-06-28 09:56:00,
2013-06-28 05:01:00,69.6,47.4,28.73,SSW,201,4.9,4.9,45,0.00,,FEW075,0.00,VWS V14.00,2013-06-28 10:01:00,
2013-06-28 05:06:00,69.6,47.4,28.73,SW,222,5.8,7.6,45,0.00,,FEW075,0.00,VWS V14.00,2013-06-28 10:06:00,
2013-06-28 05:11:00,69.6,46.8,28.73,WSW,252,3.6,3.6,44,0.00,,FEW075,0.00,VWS V14.00,2013-06-28 10:11:00,
2013-06-28 05:16:00,69.6,46.8,28.73,WNW,285,7.2,7.2,44,0.00,,FEW075,0.00,VWS V14.00,2013-06-28 10:16:00,
2013-06-28 05:21:00,69.6,46.8,28.73,SW,220,2.2,3.1,44,0.00,,FEW075,0.00,VWS V14.00,2013-06-28 10:21:00,
2013-06-28 05:26:00,69.4,46.6,28.73,WSW,258,5.4,6.3,44,0.00,,FEW075,0.00,VWS V14.00,2013-06-28 10:26:00,
2013-06-28 05:31:00,69.4,46.6,28.73,WSW,247,3.6,4.0,44,0.00,,FEW075,0.00,VWS V14.00,2013-06-28 10:31:00,
2013-06-28 05:36:00,69.3,46.4,28.73,West,278,3.6,8.1,44,0.00,,FEW075,0.00,VWS V14.00,2013-06-28 10:36:00,
2013-06-28 05:41:00,68.9,46.7,28.73,WSW,246,2.2,3.6,45,0.00,,FEW075,0.00,VWS V14.00,2013-06-28 10:41:00,
2013-06-28 05:45:00,68.7,46.5,28.73,SW,234,2.7,4.9,45,0.00,,FEW075,0.00,VWS V14.00,2013-06-28 10:45:00,
2013-06-28 05:50:00,68.5,46.4,28.73,SW,231,3.1,3.1,45,0.00,,FEW075,0.00,VWS V14.00,2013-06-28 10:50:00,
2013-06-28 05:55:00,68.5,46.4,28.73,WSW,245,0.0,8.1,45,0.00,,FEW075,0.00,VWS V14.00,2013-06-28 10:55:00,
2013-06-28 06:00:00,68.7,46.0,28.73,WNW,283,2.2,5.8,44,0.00,,FEW250,0.00,VWS V14.00,2013-06-28 11:00:00,
2013-06-28 06:05:00,68.5,45.8,28.73,WNW,295,2.2,5.8,44,0.00,,FEW250,0.00,VWS V14.00,2013-06-28 11:05:00,
2013-06-28 06:10:00,68.4,45.6,28.73,WSW,256,4.0,4.0,44,0.00,,FEW250,0.00,VWS V14.00,2013-06-28 11:10:00,
2013-06-28 06:15:00,68.4,45.6,28.76,SSW,206,2.7,4.9,44,0.00,,FEW250,0.00,VWS V14.00,2013-06-28 11:15:00,
2013-06-28 06:21:00,68.4,45.6,28.76,WSW,238,0.0,2.2,44,0.00,,FEW250,0.00,VWS V14.00,2013-06-28 11:21:00,
2013-06-28 06:25:00,68.7,44.7,28.76,SW,214,5.4,6.3,42,0.00,,FEW250,0.00,VWS V14.00,2013-06-28 11:25:00,
2013-06-28 06:30:00,70.0,41.8,28.76,WSW,257,3.1,3.1,36,0.00,,FEW250,0.00,VWS V14.00,2013-06-28 11:30:00,
2013-06-28 06:35:00,71.8,40.4,28.76,WSW,251,4.9,4.9,32,0.00,,FEW250,0.00,VWS V14.00,2013-06-28 11:35:00,
2013-06-28 06:40:00,73.2,39.1,28.76,SSW,199,4.0,4.0,29,0.00,,FEW250,0.00,VWS V14.00,2013-06-28 11:40:00,
2013-06-28 06:46:00,73.4,37.4,28.76,WSW,244,3.1,5.4,27,0.00,,FEW250,0.00,VWS V14.00,2013-06-28 11:46:00,
2013-06-28 06:51:00,74.3,36.2,28.76,West,269,0.0,4.0,25,0.00,,FEW250,0.00,VWS V14.00,2013-06-28 11:51:00,
2013-06-28 06:56:00,74.8,35.7,28.76,SW,220,2.7,6.3,24,0.00,,FEW250,0.00,VWS V14.00,2013-06-28 11:56:00,
2013-06-28 07:01:00,74.8,34.6,28.76,WSW,241,4.9,6.3,23,0.00,,FEW300,0.00,VWS V14.00,2013-06-28 12:01:00,
2013-06-28 07:06:00,74.8,35.7,28.76,West,260,0.0,7.2,24,0.00,,FEW300,0.00,VWS V14.00,2013-06-28 12:06:00,
2013-06-28 07:11:00,75.6,36.3,28.76,WSW,246,0.0,2.2,24,0.00,,FEW300,0.00,VWS V14.00,2013-06-28 12:11:00,
2013-06-28 07:16:00,75.6,34.1,28.76,West,276,3.1,8.3,22,0.00,,FEW300,0.00,VWS V14.00,2013-06-28 12:16:00,
2013-06-28 07:21:00,75.9,34.4,28.76,WNW,284,2.7,2.7,22,0.00,,FEW300,0.00,VWS V14.00,2013-06-28 12:21:00,
2013-06-28 07:26:00,77.4,34.4,28.76,SW,217,4.0,4.0,21,0.00,,FEW300,0.00,VWS V14.00,2013-06-28 12:26:00,
2013-06-28 07:31:00,78.1,35.0,28.76,SW,226,3.6,4.9,21,0.00,,FEW300,0.00,VWS V14.00,2013-06-28 12:31:00,
2013-06-28 07:36:00,78.4,35.3,28.76,WSW,239,5.4,5.4,21,0.00,,FEW300,0.00,VWS V14.00,2013-06-28 12:36:00,
2013-06-28 07:41:00,78.3,35.2,28.76,WSW,247,3.1,5.4,21,0.00,,FEW300,0.00,VWS V14.00,2013-06-28 12:41:00,
2013-06-28 07:46:00,78.6,35.5,28.76,WSW,253,5.8,8.1,21,0.00,,FEW300,0.00,VWS V14.00,2013-06-28 12:46:00,
2013-06-28 07:51:00,77.9,34.9,28.76,SW,230,4.0,5.4,21,0.00,,FEW300,0.00,VWS V14.00,2013-06-28 12:51:00,
2013-06-28 07:56:00,78.8,34.4,28.76,SW,220,2.7,8.1,20,0.00,,FEW300,0.00,VWS V14.00,2013-06-28 12:56:00,
2013-06-28 08:01:00,79.5,35.0,28.76,South,182,3.6,8.1,20,0.00,,FEW300,0.00,VWS V14.00,2013-06-28 13:01:00,
2013-06-28 08:06:00,80.8,36.0,28.76,West,269,0.0,8.1,20,0.00,,FEW300,0.00,VWS V14.00,2013-06-28 13:06:00,
2013-06-28 08:11:00,81.7,32.7,28.76,West,259,8.3,8.3,17,0.00,,FEW300,0.00,VWS V14.00,2013-06-28 13:11:00,
2013-06-28 08:16:00,82.4,36.0,28.76,SW,216,3.6,8.3,19,0.00,,FEW300,0.00,VWS V14.00,2013-06-28 13:16:00,
2013-06-28 08:21:00,81.9,32.8,28.76,WSW,239,8.1,8.1,17,0.00,,FEW300,0.00,VWS V14.00,2013-06-28 13:21:00,
2013-06-28 08:26:00,81.1,32.2,28.76,SW,231,3.6,8.1,17,0.00,,FEW300,0.00,VWS V14.00,2013-06-28 13:26:00,
2013-06-28 08:30:00,83.1,32.3,28.76,SSW,208,3.1,4.0,16,0.00,,FEW300,0.00,VWS V14.00,2013-06-28 13:30:00,
2013-06-28 08:35:00,81.9,32.8,28.76,West,261,3.1,8.7,17,0.00,,FEW300,0.00,VWS V14.00,2013-06-28 13:35:00,
2013-06-28 08:40:00,83.8,32.9,28.76,SW,227,0.0,5.8,16,0.00,,FEW300,0.00,VWS V14.00,2013-06-28 13:40:00,
2013-06-28 08:45:00,82.8,32.0,28.76,SSE,159,0.0,8.1,16,0.00,,FEW300,0.00,VWS V14.00,2013-06-28 13:45:00,
2013-06-28 08:50:00,84.7,33.6,28.76,WSW,237,0.0,4.0,16,0.00,,FEW300,0.00,VWS V14.00,2013-06-28 13:50:00,
2013-06-28 08:55:00,86.5,35.1,28.76,SW,224,3.1,4.0,16,0.00,,FEW300,0.00,VWS V14.00,2013-06-28 13:55:00,
2013-06-28 09:00:00,87.3,30.5,28.76,SW,233,3.1,3.6,13,0.00,,CLR,0.00,VWS V14.00,2013-06-28 14:00:00,
2013-06-28 09:05:00,86.0,29.5,28.76,South,180,5.4,7.2,13,0.00,,CLR,0.00,VWS V14.00,2013-06-28 14:05:00,
2013-06-28 09:10:00,86.7,30.0,28.76,SSW,203,4.9,6.3,13,0.00,,CLR,0.00,VWS V14.00,2013-06-28 14:10:00,
2013-06-28 09:15:00,86.5,35.1,28.76,South,179,2.7,7.2,16,0.00,,CLR,0.00,VWS V14.00,2013-06-28 14:15:00,
2013-06-28 09:20:00,84.7,28.5,28.76,WSW,242,3.6,4.0,13,0.00,,CLR,0.00,VWS V14.00,2013-06-28 14:20:00,
2013-06-28 09:25:00,86.2,29.6,28.76,SW,219,4.9,11.0,13,0.00,,CLR,0.00,VWS V14.00,2013-06-28 14:25:00,
2013-06-28 09:30:00,87.1,30.3,28.76,ESE,121,3.1,8.3,13,0.00,,CLR,0.00,VWS V14.00,2013-06-28 14:30:00,
2013-06-28 09:35:00,83.1,29.0,28.76,West,260,5.8,15.0,14,0.00,,CLR,0.00,VWS V14.00,2013-06-28 14:35:00,
2013-06-28 09:40:00,84.4,28.2,28.76,WSW,253,4.0,5.4,13,0.00,,CLR,0.00,VWS V14.00,2013-06-28 14:40:00,
2013-06-28 09:45:00,85.5,29.1,28.76,West,266,0.0,8.3,13,0.00,,CLR,0.00,VWS V14.00,2013-06-28 14:45:00,
2013-06-28 09:50:00,86.2,29.6,28.76,NW,307,3.1,12.3,13,0.00,,CLR,0.00,VWS V14.00,2013-06-28 14:50:00,
2013-06-28 09:55:00,87.4,30.6,28.76,SW,218,5.4,12.3,13,0.00,,CLR,0.00,VWS V14.00,2013-06-28 14:55:00,
2013-06-28 10:00:00,86.7,30.0,28.76,SW,232,5.4,12.3,13,0.00,,CLR,0.00,VWS V14.00,2013-06-28 15:00:00,
2013-06-28 10:05:00,86.2,29.6,28.76,SW,219,7.2,8.3,13,0.00,,CLR,0.00,VWS V14.00,2013-06-28 15:05:00,
2013-06-28 10:10:00,84.0,29.8,28.76,WSW,240,8.3,8.3,14,0.00,,CLR,0.00,VWS V14.00,2013-06-28 15:10:00,
2013-06-28 10:15:00,84.6,28.4,28.76,SSW,204,4.0,11.0,13,0.00,,CLR,0.00,VWS V14.00,2013-06-28 15:15:00,
2013-06-28 10:20:00,85.3,28.9,28.76,SW,218,5.4,8.3,13,0.00,,CLR,0.00,VWS V14.00,2013-06-28 15:20:00,
2013-06-28 10:25:00,86.5,29.9,28.76,SSW,203,4.0,10.5,13,0.00,,CLR,0.00,VWS V14.00,2013-06-28 15:25:00,
2013-06-28 10:30:00,84.2,28.1,28.76,WSW,243,7.6,7.6,13,0.00,,CLR,0.00,VWS V14.00,2013-06-28 15:30:00,
2013-06-28 10:35:00,84.6,28.4,28.76,SSW,211,8.1,11.0,13,0.00,,CLR,0.00,VWS V14.00,2013-06-28 15:35:00,
2013-06-28 10:40:00,86.9,30.2,28.76,SSW,211,4.0,5.4,13,0.00,,CLR,0.00,VWS V14.00,2013-06-28 15:40:00,
2013-06-28 10:45:00,85.5,29.1,28.76,SSW,200,6.3,14.5,13,0.00,,CLR,0.00,VWS V14.00,2013-06-28 15:45:00,
2013-06-28 10:50:00,83.5,29.3,28.76,SSW,206,13.2,13.2,14,0.00,,CLR,0.00,VWS V14.00,2013-06-28 15:50:00,
2013-06-28 10:55:00,83.8,29.6,28.76,SSW,201,12.8,13.2,14,0.00,,CLR,0.00,VWS V14.00,2013-06-28 15:55:00,
2013-06-28 11:00:00,83.8,29.6,28.76,SSW,193,11.0,13.6,14,0.00,,FEW055,0.00,VWS V14.00,2013-06-28 16:00:00,
2013-06-28 11:05:00,85.6,29.2,28.76,SW,222,5.8,12.3,13,0.00,,FEW055,0.00,VWS V14.00,2013-06-28 16:05:00,
2013-06-28 11:10:00,84.2,28.1,28.76,SW,214,8.1,8.1,13,0.00,,FEW055,0.00,VWS V14.00,2013-06-28 16:10:00,
2013-06-28 11:15:00,85.8,29.4,28.76,NW,308,4.0,12.8,13,0.00,,FEW055,0.00,VWS V14.00,2013-06-28 16:15:00,
2013-06-28 11:20:00,88.3,31.3,28.76,West,274,0.0,4.0,13,0.00,,FEW055,0.00,VWS V14.00,2013-06-28 16:20:00,
2013-06-28 11:25:00,87.1,30.3,28.76,WSW,237,12.3,12.3,13,0.00,,FEW055,0.00,VWS V14.00,2013-06-28 16:25:00,
2013-06-28 11:30:00,87.3,30.5,28.76,North,2,3.6,5.4,13,0.00,,FEW055,0.00,VWS V14.00,2013-06-28 16:30:00,
2013-06-28 11:35:00,86.2,29.6,28.76,SW,228,6.3,13.2,13,0.00,,FEW055,0.00,VWS V14.00,2013-06-28 16:35:00,
2013-06-28 11:40:00,86.0,29.5,28.76,WNW,288,4.9,5.8,13,0.00,,FEW055,0.00,VWS V14.00,2013-06-28 16:40:00,
2013-06-28 11:45:00,84.7,28.5,28.76,South,176,8.3,12.8,13,0.00,,FEW055,0.00,VWS V14.00,2013-06-28 16:45:00,
2013-06-28 11:50:00,87.1,30.3,28.76,SSW,204,7.6,10.5,13,0.00,,FEW055,0.00,VWS V14.00,2013-06-28 16:50:00,
2013-06-28 11:55:00,84.4,28.2,28.76,SSW,201,7.6,14.1,13,0.00,,FEW055,0.00,VWS V14.00,2013-06-28 16:55:00,
2013-06-28 12:00:00,85.1,28.8,28.76,WSW,244,4.0,14.1,13,0.00,,FEW060,0.00,VWS V14.00,2013-06-28 17:00:00,
2013-06-28 12:05:00,87.3,30.5,28.76,WSW,241,8.1,10.5,13,0.00,,FEW060,0.00,VWS V14.00,2013-06-28 17:05:00,
2013-06-28 12:10:00,86.2,29.6,28.76,SW,228,6.3,6.3,13,0.00,,FEW060,0.00,VWS V14.00,2013-06-28 17:10:00,
2013-06-28 12:15:00,87.3,30.5,28.73,SSE,163,14.5,16.8,13,0.00,,FEW060,0.00,VWS V14.00,2013-06-28 17:15:00,
2013-06-28 12:20:00,86.4,29.8,28.73,WSW,251,7.6,10.5,13,0.00,,FEW060,0.00,VWS V14.00,2013-06-28 17:20:00,
2013-06-28 12:25:00,89.1,31.9,28.73,West,280,2.7,10.5,13,0.00,,FEW060,0.00,VWS V14.00,2013-06-28 17:25:00,
2013-06-28 12:30:00,88.0,31.0,28.73,WSW,246,11.0,11.0,13,0.00,,FEW060,0.00,VWS V14.00,2013-06-28 17:30:00,
2013-06-28 12:35:00,88.0,31.0,28.73,NW,325,3.1,14.1,13,0.00,,FEW060,0.00,VWS V14.00,2013-06-28 17:35:00,
2013-06-28 12:40:00,86.2,29.6,28.73,SSW,202,10.5,10.5,13,0.00,,FEW060,0.00,VWS V14.00,2013-06-28 17:40:00,
2013-06-28 12:45:00,87.3,30.5,28.73,SW,227,6.7,15.0,13,0.00,,FEW060,0.00,VWS V14.00,2013-06-28 17:45:00,
2013-06-28 12:50:00,89.6,30.3,28.73,NW,323,3.1,7.6,12,0.00,,FEW060,0.00,VWS V14.00,2013-06-28 17:50:00,
2013-06-28 12:55:00,87.1,30.3,28.73,WNW,297,10.1,13.2,13,0.00,,FEW060,0.00,VWS V14.00,2013-06-28 17:55:00,
2013-06-28 13:00:00,86.4,29.8,28.73,South,183,8.3,13.2,13,0.00,,FEW070,0.00,VWS V14.00,2013-06-28 18:00:00,
2013-06-28 13:05:00,85.6,29.2,28.73,SSW,211,9.6,12.8,13,0.00,,FEW070,0.00,VWS V14.00,2013-06-28 18:05:00,
2013-06-28 13:10:00,86.4,29.8,28.73,West,259,5.8,7.2,13,0.00,,FEW070,0.00,VWS V14.00,2013-06-28 18:10:00,
2013-06-28 13:15:00,86.9,30.2,28.73,SW,223,11.0,12.3,13,0.00,,FEW070,0.00,VWS V14.00,2013-06-28 18:15:00,
2013-06-28 13:20:00,87.1,30.3,28.73,SSW,208,6.3,15.0,13,0.00,,FEW070,0.00,VWS V14.00,2013-06-28 18:20:00,
2013-06-28 13:25:00,86.2,29.6,28.73,West,276,7.6,15.0,13,0.00,,FEW070,0.00,VWS V14.00,2013-06-28 18:25:00,
2013-06-28 13:30:00,85.3,28.9,28.73,WSW,250,4.0,4.0,13,0.00,,FEW070,0.00,VWS V14.00,2013-06-28 18:30:00,
2013-06-28 13:35:00,86.4,29.8,28.73,SW,215,6.3,21.5,13,0.00,,FEW070,0.00,VWS V14.00,2013-06-28 18:35:00,
2013-06-28 13:40:00,87.6,30.8,28.73,SSW,208,7.6,12.8,13,0.00,,FEW070,0.00,VWS V14.00,2013-06-28 18:40:00,
2013-06-28 13:45:00,86.9,30.2,28.73,SW,221,10.1,15.4,13,0.00,,FEW070,0.00,VWS V14.00,2013-06-28 18:45:00,
2013-06-28 13:50:00,85.6,29.2,28.73,SW,223,15.4,15.4,13,0.00,,FEW070,0.00,VWS V14.00,2013-06-28 18:50:00,
2013-06-28 13:55:00,87.4,30.6,28.73,West,277,12.8,15.4,13,0.00,,FEW070,0.00,VWS V14.00,2013-06-28 18:55:00,
2013-06-28 14:00:00,88.2,31.2,28.73,West,279,6.3,6.3,13,0.00,,FEW080,0.00,VWS V14.00,2013-06-28 19:00:00,
2013-06-28 14:05:00,88.2,31.2,28.73,WSW,237,8.1,12.3,13,0.00,,FEW080,0.00,VWS V14.00,2013-06-28 19:05:00,
2013-06-28 14:10:00,88.0,31.0,28.73,SW,223,13.2,13.2,13,0.00,,FEW080,0.00,VWS V14.00,2013-06-28 19:10:00,
2013-06-28 14:15:00,88.7,31.6,28.70,West,278,5.4,13.2,13,0.00,,FEW080,0.00,VWS V14.00,2013-06-28 19:15:00,
2013-06-28 14:20:00,88.0,31.0,28.70,WNW,303,12.3,12.3,13,0.00,,FEW080,0.00,VWS V14.00,2013-06-28 19:20:00,
2013-06-28 14:25:00,88.0,31.0,28.70,SW,218,10.5,13.2,13,0.00,,FEW080,0.00,VWS V14.00,2013-06-28 19:25:00,
2013-06-28 14:30:00,87.6,30.8,28.70,West,262,6.3,8.1,13,0.00,,FEW080,0.00,VWS V14.00,2013-06-28 19:30:00,
2013-06-28 14:35:00,88.5,31.5,28.70,SW,234,5.8,15.0,13,0.00,,FEW080,0.00,VWS V14.00,2013-06-28 19:35:00,
2013-06-28 14:40:00,89.4,32.2,28.70,SW,227,15.4,15.4,13,0.00,,FEW080,0.00,VWS V14.00,2013-06-28 19:40:00,
2013-06-28 14:45:00,88.9,31.7,28.70,WSW,258,5.8,16.8,13,0.00,,FEW080,0.00,VWS V14.00,2013-06-28 19:45:00,
2013-06-28 14:50:00,90.5,31.0,28.70,West,274,8.1,8.1,12,0.00,,FEW080,0.00,VWS V14.00,2013-06-28 19:50:00,
2013-06-28 14:55:00,88.0,31.0,28.70,WSW,257,6.3,15.0,13,0.00,,FEW080,0.00,VWS V14.00,2013-06-28 19:55:00,
2013-06-28 15:00:00,87.8,30.9,28.70,South,185,5.4,5.4,13,0.00,,SCT085,0.00,VWS V14.00,2013-06-28 20:00:00,
2013-06-28 15:05:00,88.2,31.2,28.70,WSW,239,5.4,15.4,13,0.00,,SCT085,0.00,VWS V14.00,2013-06-28 20:05:00,
2013-06-28 15:10:00,88.0,31.0,28.70,West,280,8.1,8.1,13,0.00,,SCT085,0.00,VWS V14.00,2013-06-28 20:10:00,
2013-06-28 15:15:00,91.6,31.9,28.70,ESE,119,3.1,12.8,12,0.00,,SCT085,0.00,VWS V14.00,2013-06-28 20:15:00,
2013-06-28 15:20:00,89.2,32.0,28.70,WSW,249,10.1,10.1,13,0.00,,SCT085,0.00,VWS V14.00,2013-06-28 20:20:00,
2013-06-28 15:25:00,88.7,31.6,28.70,South,190,15.4,15.4,13,0.00,,SCT085,0.00,VWS V14.00,2013-06-28 20:25:00,
2013-06-28 15:30:00,86.7,30.0,28.70,SSW,194,6.3,7.6,13,0.00,,SCT085,0.00,VWS V14.00,2013-06-28 20:30:00,
2013-06-28 15:35:00,89.1,31.9,28.70,WSW,258,8.7,17.0,13,0.00,,SCT085,0.00,VWS V14.00,2013-06-28 20:35:00,
2013-06-28 15:40:00,89.8,30.5,28.70,South,190,7.2,7.2,12,0.00,,SCT085,0.00,VWS V14.00,2013-06-28 20:40:00,
2013-06-28 15:45:00,92.5,32.5,28.70,SW,233,6.3,10.5,12,0.00,,SCT085,0.00,VWS V14.00,2013-06-28 20:45:00,
2013-06-28 15:50:00,88.9,31.7,28.70,South,172,4.0,8.3,13,0.00,,SCT085,0.00,VWS V14.00,2013-06-28 20:50:00,
2013-06-28 15:55:00,88.7,31.6,28.70,SSW,212,13.2,13.2,13,0.00,,SCT085,0.00,VWS V14.00,2013-06-28 20:55:00,
2013-06-28 16:00:00,89.8,30.5,28.70,West,275,4.0,17.4,12,0.00,,SCT090,0.00,VWS V14.00,2013-06-28 21:00:00,
2013-06-28 16:05:00,90.1,30.7,28.70,SSW,198,11.9,13.2,12,0.00,,SCT090,0.00,VWS V14.00,2013-06-28 21:05:00,
2013-06-28 16:10:00,91.2,31.6,28.70,West,277,4.0,4.0,12,0.00,,SCT090,0.00,VWS V14.00,2013-06-28 21:10:00,
2013-06-28 16:15:00,93.4,31.1,28.70,WNW,286,2.7,12.8,11,0.00,,SCT090,0.00,VWS V14.00,2013-06-28 21:15:00,
2013-06-28 16:20:00,88.9,31.7,28.70,WSW,244,8.3,8.3,13,0.00,,SCT090,0.00,VWS V14.00,2013-06-28 21:20:00,
2013-06-28 16:25:00,88.5,31.5,28.70,SSW,209,3.6,15.4,13,0.00,,SCT090,0.00,VWS V14.00,2013-06-28 21:25:00,
2013-06-28 16:30:00,86.2,29.6,28.70,West,274,5.4,8.1,13,0.00,,SCT090,0.00,VWS V14.00,2013-06-28 21:30:00,
2013-06-28 16:35:00,88.3,31.3,28.70,WSW,249,10.5,15.0,13,0.00,,SCT090,0.00,VWS V14.00,2013-06-28 21:35:00,
2013-06-28 16:40:00,90.0,30.6,28.67,South,186,8.7,8.7,12,0.00,,SCT090,0.00,VWS V14.00,2013-06-28 21:40:00,
2013-06-28 16:45:00,92.8,32.8,28.67,WNW,293,10.5,10.5,12,0.00,,SCT090,0.00,VWS V14.00,2013-06-28 21:45:00,
2013-06-28 16:50:00,89.2,32.0,28.67,WSW,246,8.1,8.7,13,0.00,,SCT090,0.00,VWS V14.00,2013-06-28 21:50:00,
2013-06-28 16:55:00,88.7,31.6,28.67,WSW,250,4.0,12.8,13,0.00,,SCT090,0.00,VWS V14.00,2013-06-28 21:55:00,
2013-06-28 17:00:00,92.3,32.4,28.67,WSW,246,3.6,12.8,12,0.00,,SCT095,0.00,VWS V14.00,2013-06-28 22:00:00,
2013-06-28 17:05:00,94.3,31.8,28.67,WNW,290,5.8,12.8,11,0.00,,SCT095,0.00,VWS V14.00,2013-06-28 22:05:00,
2013-06-28 17:10:00,93.6,31.2,28.67,West,270,4.9,4.9,11,0.00,,SCT095,0.00,VWS V14.00,2013-06-28 22:10:00,
2013-06-28 17:15:00,94.1,31.6,28.67,SSW,199,4.0,16.3,11,0.00,,SCT095,0.00,VWS V14.00,2013-06-28 22:15:00,
2013-06-28 17:20:00,91.8,32.0,28.67,SW,221,6.3,6.3,12,0.00,,SCT095,0.00,VWS V14.00,2013-06-28 22:20:00,
2013-06-28 17:25:00,92.8,32.8,28.67,WNW,286,6.3,8.3,12,0.00,,SCT095,0.00,VWS V14.00,2013-06-28 22:25:00,
2013-06-28 17:30:00,89.2,32.0,28.67,WSW,246,10.1,10.1,13,0.00,,SCT095,0.00,VWS V14.00,2013-06-28 22:30:00,
2013-06-28 17:35:00,89.2,32.0,28.67,SE,132,8.7,17.0,13,0.00,,SCT095,0.00,VWS V14.00,2013-06-28 22:35:00,
2013-06-28 17:40:00,86.0,29.5,28.67,SSW,196,3.1,4.0,13,0.00,,SCT095,0.00,VWS V14.00,2013-06-28 22:40:00,
2013-06-28 17:45:00,86.0,29.5,28.67,SSW,195,11.0,16.8,13,0.00,,SCT095,0.00,VWS V14.00,2013-06-28 22:45:00,
2013-06-28 17:50:00,87.8,30.9,28.67,WNW,293,5.4,6.7,13,0.00,,SCT095,0.00,VWS V14.00,2013-06-28 22:50:00,
2013-06-28 17:55:00,88.2,31.2,28.67,SW,234,6.3,12.8,13,0.00,,SCT095,0.00,VWS V14.00,2013-06-28 22:55:00,
2013-06-28 18:00:00,87.8,30.9,28.67,SSW,211,10.5,12.8,13,0.00,,SCT250,0.00,VWS V14.00,2013-06-28 23:00:00,
2013-06-28 18:05:00,90.1,30.7,28.67,SW,224,8.3,13.2,12,0.00,,SCT250,0.00,VWS V14.00,2013-06-28 23:05:00,
2013-06-28 18:10:00,91.9,32.1,28.67,West,273,3.1,3.1,12,0.00,,SCT250,0.00,VWS V14.00,2013-06-28 23:10:00,
2013-06-28 18:15:00,89.1,31.9,28.67,SSW,197,8.3,16.3,13,0.00,,SCT250,0.00,VWS V14.00,2013-06-28 23:15:00,
2013-06-28 18:20:00,86.2,29.6,28.67,SW,220,5.4,8.3,13,0.00,,SCT250,0.00,VWS V14.00,2013-06-28 23:20:00,
2013-06-28 18:25:00,88.0,31.0,28.67,WSW,242,6.3,12.3,13,0.00,,SCT250,0.00,VWS V14.00,2013-06-28 23:25:00,
2013-06-28 18:30:00,89.2,32.0,28.64,WNW,298,3.1,6.3,13,0.00,,SCT250,0.00,VWS V14.00,2013-06-28 23:30:00,
2013-06-28 18:35:00,91.6,31.9,28.64,SW,221,3.6,13.6,12,0.00,,SCT250,0.00,VWS V14.00,2013-06-28 23:35:00,
2013-06-28 18:40:00,88.2,31.2,28.64,SW,232,5.8,8.3,13,0.00,,SCT250,0.00,VWS V14.00,2013-06-28 23:40:00,
2013-06-28 18:45:00,89.4,32.2,28.67,West,276,2.7,8.7,13,0.00,,SCT250,0.00,VWS V14.00,2013-06-28 23:45:00,
2013-06-28 18:50:00,89.1,31.9,28.67,NW,325,5.4,8.3,13,0.00,,SCT250,0.00,VWS V14.00,2013-06-28 23:50:00,
2013-06-28 18:55:00,89.1,31.9,28.67,SW,218,8.7,12.3,13,0.00,,SCT250,0.00,VWS V14.00,2013-06-28 23:55:00,
2013-06-28 19:00:00,88.9,31.7,28.67,SW,234,8.3,12.3,13,0.00,,SCT250,0.00,VWS V14.00,2013-06-29 00:00:00,
2013-06-28 19:05:00,87.6,30.8,28.67,West,275,11.0,14.5,13,0.00,,SCT250,0.00,VWS V14.00,2013-06-29 00:05:00,
2013-06-28 19:10:00,87.6,30.8,28.67,South,176,9.6,9.6,13,0.00,,SCT250,0.00,VWS V14.00,2013-06-29 00:10:00,
2013-06-28 19:15:00,88.7,31.6,28.67,WSW,250,2.7,10.1,13,0.00,,SCT250,0.00,VWS V14.00,2013-06-29 00:15:00,
2013-06-28 19:20:00,88.7,31.6,28.67,WSW,252,4.0,8.1,13,0.00,,SCT250,0.00,VWS V14.00,2013-06-29 00:20:00,
2013-06-28 19:25:00,88.3,31.3,28.67,WNW,303,3.6,10.1,13,0.00,,SCT250,0.00,VWS V14.00,2013-06-29 00:25:00,
2013-06-28 19:30:00,87.8,30.9,28.67,SSW,211,13.2,13.2,13,0.00,,SCT250,0.00,VWS V14.00,2013-06-29 00:30:00,
2013-06-28 19:35:00,87.1,30.3,28.67,NW,308,4.0,13.2,13,0.00,,SCT250,0.00,VWS V14.00,2013-06-29 00:35:00,
2013-06-28 19:40:00,88.3,31.3,28.67,SW,236,4.9,5.4,13,0.00,,SCT250,0.00,VWS V14.00,2013-06-29 00:40:00,
2013-06-28 19:45:00,85.3,28.9,28.67,WSW,237,6.3,8.7,13,0.00,,SCT250,0.00,VWS V14.00,2013-06-29 00:45:00,
2013-06-28 19:50:00,85.8,29.4,28.67,WSW,243,4.9,6.3,13,0.00,,SCT250,0.00,VWS V14.00,2013-06-29 00:50:00,
2013-06-28 19:55:00,86.0,29.5,28.67,WSW,258,4.0,10.1,13,0.00,,SCT250,0.00,VWS V14.00,2013-06-29 00:55:00,
2013-06-28 20:00:00,85.3,28.9,28.67,WNW,293,8.3,10.1,13,0.00,,FEW095,0.00,VWS V14.00,2013-06-29 01:00:00,
2013-06-28 20:05:00,83.8,29.6,28.67,WNW,294,4.9,8.1,14,0.00,,FEW095,0.00,VWS V14.00,2013-06-29 01:05:00,
2013-06-28 20:10:00,80.6,27.0,28.67,South,184,5.4,5.4,14,0.00,,FEW095,0.00,VWS V14.00,2013-06-29 01:10:00,
2013-06-28 20:15:00,79.5,27.9,28.67,SSW,199,4.5,8.1,15,0.00,,FEW095,0.00,VWS V14.00,2013-06-29 01:15:00,
2013-06-28 20:20:00,78.6,31.6,28.67,WSW,239,5.8,5.8,18,0.00,,FEW095,0.00,VWS V14.00,2013-06-29 01:20:00,
2013-06-28 20:25:00,78.3,31.3,28.67,WNW,292,7.2,7.6,18,0.00,,FEW095,0.00,VWS V14.00,2013-06-29 01:25:00,
2013-06-28 20:30:00,78.3,31.3,28.67,SW,219,6.3,6.3,18,0.00,,FEW095,0.00,VWS V14.00,2013-06-29 01:30:00,
2013-06-28 20:35:00,77.9,31.0,28.67,WSW,237,3.6,13.2,18,0.00,,FEW095,0.00,VWS V14.00,2013-06-29 01:35:00,
2013-06-28 20:40:00,77.7,30.9,28.67,WSW,254,5.8,8.3,18,0.00,,FEW095,0.00,VWS V14.00,2013-06-29 01:40:00,
2013-06-28 20:45:00,77.5,30.7,28.67,WSW,246,3.6,8.7,18,0.00,,FEW095,0.00,VWS V14.00,2013-06-29 01:45:00,
2013-06-28 20:50:00,77.0,30.3,28.67,NNW,331,3.6,5.4,18,0.00,,FEW095,0.00,VWS V14.00,2013-06-29 01:50:00,
2013-06-28 20:55:00,76.8,30.1,28.67,West,275,4.0,10.1,18,0.00,,FEW095,0.00,VWS V14.00,2013-06-29 01:55:00,
2013-06-28 21:00:00,76.6,30.0,28.67,SW,220,4.0,10.1,18,0.00,,CLR,0.00,VWS V14.00,2013-06-29 02:00:00,
2013-06-28 21:05:00,76.1,29.6,28.67,SSW,208,4.0,8.1,18,0.00,,CLR,0.00,VWS V14.00,2013-06-29 02:05:00,
2013-06-28 21:10:00,75.9,32.0,28.67,SW,220,3.1,8.1,20,0.00,,CLR,0.00,VWS V14.00,2013-06-29 02:10:00,
2013-06-28 21:15:00,75.7,31.9,28.67,West,273,5.8,8.1,20,0.00,,CLR,0.00,VWS V14.00,2013-06-29 02:15:00,
2013-06-28 21:20:00,75.6,31.7,28.67,WSW,246,2.7,8.1,20,0.00,,CLR,0.00,VWS V14.00,2013-06-29 02:20:00,
2013-06-28 21:25:00,75.2,31.4,28.67,SW,224,6.3,7.6,20,0.00,,CLR,0.00,VWS V14.00,2013-06-29 02:25:00,
2013-06-28 21:30:00,75.0,32.5,28.67,West,267,2.2,7.6,21,0.00,,CLR,0.00,VWS V14.00,2013-06-29 02:30:00,
2013-06-28 21:35:00,74.7,32.2,28.67,SSW,206,2.7,8.3,21,0.00,,CLR,0.00,VWS V14.00,2013-06-29 02:35:00,
2013-06-28 21:40:00,74.3,31.9,28.67,WSW,238,2.7,2.7,21,0.00,,CLR,0.00,VWS V14.00,2013-06-29 02:40:00,
2013-06-28 21:45:00,73.9,31.6,28.67,West,279,5.4,6.3,21,0.00,,CLR,0.00,VWS V14.00,2013-06-29 02:45:00,
2013-06-28 21:50:00,73.8,31.4,28.67,West,280,3.6,3.6,21,0.00,,CLR,0.00,VWS V14.00,2013-06-29 02:50:00,
2013-06-28 21:55:00,73.6,31.3,28.67,WSW,240,2.7,6.3,21,0.00,,CLR,0.00,VWS V14.00,2013-06-29 02:55:00,
2013-06-28 22:00:00,73.9,31.6,28.67,WSW,239,4.0,7.6,21,0.00,,CLR,0.00,VWS V14.00,2013-06-29 03:00:00,
2013-06-28 22:05:00,73.8,31.4,28.67,SW,227,3.1,5.8,21,0.00,,CLR,0.00,VWS V14.00,2013-06-29 03:05:00,
2013-06-28 22:10:00,73.4,31.1,28.67,WSW,253,3.6,5.8,21,0.00,,CLR,0.00,VWS V14.00,2013-06-29 03:10:00,
2013-06-28 22:15:00,73.6,31.3,28.67,West,267,5.8,7.2,21,0.00,,CLR,0.00,VWS V14.00,2013-06-29 03:15:00,
2013-06-28 22:20:00,73.6,31.3,28.67,WNW,288,3.6,3.6,21,0.00,,CLR,0.00,VWS V14.00,2013-06-29 03:20:00,
2013-06-28 22:25:00,73.4,31.1,28.67,SW,229,5.4,8.1,21,0.00,,CLR,0.00,VWS V14.00,2013-06-29 03:25:00,
2013-06-28 22:30:00,73.2,32.1,28.70,WSW,257,4.5,5.8,22,0.00,,CLR,0.00,VWS V14.00,2013-06-29 03:30:00,
2013-06-28 22:35:00,73.0,32.0,28.70,SW,229,4.0,10.5,22,0.00,,CLR,0.00,VWS V14.00,2013-06-29 03:35:00,
2013-06-28 22:40:00,73.0,32.0,28.70,West,271,0.0,0.0,22,0.00,,CLR,0.00,VWS V14.00,2013-06-29 03:40:00,
2013-06-28 22:45:00,72.7,31.7,28.67,WNW,296,6.3,8.1,22,0.00,,CLR,0.00,VWS V14.00,2013-06-29 03:45:00,
2013-06-28 22:50:00,72.5,32.6,28.67,SW,227,2.7,8.1,23,0.00,,CLR,0.00,VWS V14.00,2013-06-29 03:50:00,
2013-06-28 22:55:00,72.3,32.5,28.67,West,272,2.2,5.4,23,0.00,,CLR,0.00,VWS V14.00,2013-06-29 03:55:00,
2013-06-28 23:00:00,71.8,32.0,28.67,SW,222,2.2,5.4,23,0.00,,CLR,0.00,VWS V14.00,2013-06-29 04:00:00,
2013-06-28 23:01:00,71.8,32.0,28.67,WSW,241,3.1,4.0,23,0.00,,CLR,0.00,VWS V14.00,2013-06-29 04:01:00,
2013-06-28 23:06:00,71.8,33.1,28.67,West,260,4.9,4.9,24,0.00,,CLR,0.00,VWS V14.00,2013-06-29 04:06:00,
2013-06-28 23:11:00,71.6,32.9,28.67,SW,221,0.0,0.0,24,0.00,,CLR,0.00,VWS V14.00,2013-06-29 04:11:00,
2013-06-28 23:16:00,71.1,33.5,28.67,SW,225,0.0,4.0,25,0.00,,CLR,0.00,VWS V14.00,2013-06-29 04:16:00,
2013-06-28 23:21:00,71.1,34.5,28.67,WSW,249,3.6,5.8,26,0.00,,CLR,0.00,VWS V14.00,2013-06-29 04:21:00,
2013-06-28 23:26:00,70.9,34.3,28.67,SW,224,2.2,6.3,26,0.00,,CLR,0.00,VWS V14.00,2013-06-29 04:26:00,
2013-06-28 23:31:00,70.7,35.1,28.67,SSE,166,7.6,7.6,27,0.00,,CLR,0.00,VWS V14.00,2013-06-29 04:31:00,
2013-06-28 23:36:00,70.3,34.8,28.67,SW,225,2.2,7.6,27,0.00,,CLR,0.00,VWS V14.00,2013-06-29 04:36:00,
2013-06-28 23:41:00,70.0,36.3,28.67,SW,228,3.1,5.8,29,0.00,,CLR,0.00,VWS V14.00,2013-06-29 04:41:00,
2013-06-28 23:46:00,70.2,36.5,28.67,SW,232,2.2,7.6,29,0.00,,CLR,0.00,VWS V14.00,2013-06-29 04:46:00,
2013-06-28 23:51:00,70.0,36.3,28.67,SW,222,5.8,7.6,29,0.00,,CLR,0.00,VWS V14.00,2013-06-29 04:51:00,
2013-06-28 23:56:00,69.8,36.1,28.67,WSW,250,0.0,7.6,29,0.00,,CLR,0.00,VWS V14.00,2013-06-29 04:56:00,